date,time,SUV Intensity [MED/Hr],UV Index,Daily total [MED],Since Last [MED]
17/06/2022,00:11:33,0.001,0.0,0.0,0.0
17/06/2022,00:18:23,0.000,0.0,0.0,0.0
17/06/2022,00:23:23,0.001,0.0,0.0,0.0
17/06/2022,00:31:25,0.000,0.0,0.0,0.0
17/06/2022,00:38:33,0.000,0.0,0.0,0.0
17/06/2022,00:45:24,0.000,0.0,0.0,0.0
17/06/2022,00:52:40,0.001,0.0,0.0,0.0
17/06/2022,00:59:24,0.001,0.0,0.0,0.0
17/06/2022,01:05:24,0.001,0.0,0.0,0.0
17/06/2022,01:12:25,0.001,0.0,0.0,0.0
17/06/2022,01:19:25,0.001,0.0,0.0,0.0
17/06/2022,01:28:26,0.001,0.0,0.0,0.0
17/06/2022,01:35:24,0.001,0.0,0.0,0.0
17/06/2022,01:42:25,0.001,0.0,0.0,0.0
17/06/2022,01:49:24,0.001,0.0,0.0,0.0
17/06/2022,01:56:25,0.001,0.0,0.0,0.0
17/06/2022,02:03:24,0.001,0.0,0.0,0.0
17/06/2022,02:10:24,0.001,0.0,0.0,0.0
17/06/2022,02:18:26,0.001,0.0,0.0,0.0
17/06/2022,02:25:24,0.001,0.0,0.0,0.0
17/06/2022,02:32:25,0.001,0.0,0.0,0.0
17/06/2022,02:39:24,0.001,0.0,0.0,0.0
17/06/2022,02:44:23,0.001,0.0,0.0,0.0
17/06/2022,02:51:25,0.000,0.0,0.0,0.0
17/06/2022,02:58:25,0.001,0.0,0.0,0.0
17/06/2022,03:06:25,0.001,0.0,0.0,0.0
17/06/2022,03:13:25,0.001,0.0,0.0,0.0
17/06/2022,03:17:22,0.001,0.0,0.0,0.0
17/06/2022,03:24:24,0.001,0.0,0.0,0.0
17/06/2022,03:31:24,0.001,0.0,0.0,0.0
17/06/2022,03:38:24,0.003,0.0,0.0,0.0
17/06/2022,03:45:24,0.003,0.0,0.0,0.0
17/06/2022,03:53:26,0.004,0.0,0.0,0.0
17/06/2022,04:00:26,0.003,0.0,0.0,0.0
17/06/2022,04:07:24,0.005,0.0,0.0,0.0
17/06/2022,04:14:24,0.007,0.0,0.0,0.0
17/06/2022,04:19:23,0.008,0.0,0.001,0.001
17/06/2022,04:27:25,0.012,0.0,0.002,0.001
17/06/2022,04:33:24,0.013,0.0,0.004,0.002
17/06/2022,04:41:26,0.017,0.0,0.006,0.002
17/06/2022,04:47:24,0.019,0.0,0.007,0.001
17/06/2022,04:55:25,0.027,0.0,0.011,0.004
17/06/2022,05:01:24,0.033,0.0,0.014,0.003
17/06/2022,05:09:26,0.040,0.0,0.018,0.004
17/06/2022,05:16:24,0.048,0.0,0.023,0.005
17/06/2022,05:23:25,0.057,0.0,0.03,0.007
17/06/2022,05:30:33,0.068,0.0,0.037,0.007
17/06/2022,05:38:25,0.081,0.0,0.047,0.01
17/06/2022,05:46:25,0.094,0.0,0.058,0.011
17/06/2022,05:52:24,0.107,0.0,0.068,0.01
17/06/2022,05:59:33,0.128,0.0,0.082,0.014
17/06/2022,06:06:25,0.148,0.0,0.098,0.016
17/06/2022,06:14:26,0.174,0.0,0.12,0.022
17/06/2022,06:21:25,0.198,0.0,0.141,0.021
17/06/2022,06:30:27,0.228,1.0,0.173,0.032
17/06/2022,06:36:24,0.245,1.0,0.197,0.024
17/06/2022,06:43:43,0.263,1.0,0.228,0.031
17/06/2022,06:50:25,0.301,1.0,0.259,0.031
17/06/2022,06:57:25,0.331,1.0,0.295,0.036
17/06/2022,07:05:26,0.368,1.0,0.341,0.046
17/06/2022,07:11:25,0.420,1.0,0.381,0.04
17/06/2022,07:19:28,0.456,1.0,0.441,0.06
17/06/2022,07:25:25,0.511,1.0,0.488,0.047
17/06/2022,07:32:25,0.575,1.0,0.552,0.064
17/06/2022,07:40:27,0.653,2.0,0.634,0.082
17/06/2022,07:46:25,0.682,2.0,0.7,0.066
17/06/2022,07:54:26,0.632,1.0,0.789,0.089
17/06/2022,08:01:25,0.775,2.0,0.874,0.085
17/06/2022,08:08:25,0.871,2.0,0.972,0.098
17/06/2022,08:16:26,0.920,2.0,1.082,0.11
17/06/2022,08:23:25,0.839,2.0,1.181,0.099
17/06/2022,08:30:25,0.974,2.0,1.287,0.106
17/06/2022,08:37:33,0.964,2.0,1.401,0.114
17/06/2022,08:44:25,1.025,2.0,1.518,0.117
17/06/2022,08:52:26,1.243,3.0,1.676,0.158
17/06/2022,08:59:25,1.248,3.0,1.823,0.147
17/06/2022,09:07:26,1.352,3.0,1.995,0.172
17/06/2022,09:13:25,1.445,3.0,2.134,0.139
17/06/2022,09:21:26,1.476,3.0,2.331,0.197
17/06/2022,09:27:24,1.551,4.0,2.481,0.15
17/06/2022,09:36:27,1.625,4.0,2.722,0.241
17/06/2022,09:42:25,1.672,4.0,2.884,0.162
17/06/2022,09:49:25,1.733,4.0,3.084,0.2
17/06/2022,09:57:34,1.799,4.0,3.323,0.239
17/06/2022,10:03:32,1.858,4.0,3.505,0.182
17/06/2022,10:11:26,1.930,4.0,3.754,0.249
17/06/2022,10:17:25,1.980,5.0,3.947,0.193
17/06/2022,10:25:26,2.038,5.0,4.216,0.269
17/06/2022,10:31:24,2.054,5.0,4.421,0.205
17/06/2022,10:38:42,2.065,5.0,4.671,0.25
17/06/2022,10:46:34,2.127,5.0,4.947,0.276
17/06/2022,10:53:25,2.214,5.0,5.196,0.249
17/06/2022,11:00:33,2.174,5.0,5.462,0.266
17/06/2022,11:08:26,2.277,5.0,5.761,0.299
17/06/2022,11:14:24,2.333,5.0,5.989,0.228
17/06/2022,11:22:26,2.362,5.0,6.303,0.314
17/06/2022,11:28:25,2.356,5.0,6.54,0.237
17/06/2022,11:36:26,2.388,5.0,6.856,0.316
17/06/2022,11:42:25,2.375,5.0,7.091,0.235
17/06/2022,11:50:26,2.389,6.0,7.411,0.32
17/06/2022,11:56:27,2.352,5.0,7.651,0.24
17/06/2022,12:04:26,2.402,6.0,7.969,0.318
17/06/2022,12:11:26,2.422,6.0,8.247,0.278
17/06/2022,12:19:27,2.379,5.0,8.568,0.321
17/06/2022,12:26:25,2.423,6.0,8.846,0.278
17/06/2022,12:33:42,2.424,6.0,9.139,0.293
17/06/2022,12:40:25,2.367,5.0,9.404,0.265
17/06/2022,12:48:26,2.398,6.0,9.725,0.321
17/06/2022,12:54:24,2.374,5.0,9.961,0.236
17/06/2022,13:01:25,2.341,5.0,10.237,0.276
17/06/2022,13:06:25,2.308,5.0,10.429,0.192
17/06/2022,13:13:23,2.268,5.0,10.696,0.267
17/06/2022,13:22:27,2.255,5.0,11.037,0.341
17/06/2022,13:27:24,2.207,5.0,11.221,0.184
17/06/2022,13:36:27,2.161,5.0,11.55,0.329
17/06/2022,13:42:33,2.116,5.0,11.766,0.216
17/06/2022,13:49:26,2.038,5.0,12.007,0.241
17/06/2022,13:57:26,2.019,5.0,12.281,0.274
17/06/2022,14:04:25,1.955,4.0,12.514,0.233
17/06/2022,14:12:26,1.895,4.0,12.771,0.257
17/06/2022,14:19:26,1.845,4.0,12.989,0.218
17/06/2022,14:26:34,1.775,4.0,13.205,0.216
17/06/2022,14:33:25,1.718,4.0,13.405,0.2
17/06/2022,14:40:25,1.661,4.0,13.6,0.195
17/06/2022,14:47:27,1.570,4.0,13.79,0.19
17/06/2022,14:52:24,1.536,4.0,13.919,0.129
17/06/2022,14:59:26,1.492,3.0,14.097,0.178
17/06/2022,15:06:26,1.430,3.0,14.267,0.17
17/06/2022,15:14:27,1.345,3.0,14.452,0.185
17/06/2022,15:21:26,1.295,3.0,14.606,0.154
17/06/2022,15:28:26,1.230,3.0,14.753,0.147
17/06/2022,15:35:26,1.180,3.0,14.893,0.14
17/06/2022,15:43:26,1.097,3.0,15.041,0.148
17/06/2022,15:51:26,0.764,2.0,15.164,0.123
17/06/2022,15:56:25,0.982,2.0,15.245,0.081
17/06/2022,16:04:27,0.928,2.0,15.375,0.13
17/06/2022,16:11:26,0.865,2.0,15.478,0.103
17/06/2022,16:18:27,0.804,2.0,15.577,0.099
17/06/2022,16:26:27,0.738,2.0,15.68,0.103
17/06/2022,16:32:25,0.679,2.0,15.751,0.071
17/06/2022,16:40:26,0.627,1.0,15.838,0.087
17/06/2022,16:46:25,0.585,1.0,15.898,0.06
17/06/2022,16:54:27,0.531,1.0,15.973,0.075
17/06/2022,17:01:26,0.484,1.0,16.032,0.059
17/06/2022,17:08:28,0.447,1.0,16.087,0.055
17/06/2022,17:15:25,0.416,1.0,16.135,0.048
17/06/2022,17:23:27,0.368,1.0,16.187,0.052
17/06/2022,17:30:26,0.329,1.0,16.228,0.041
17/06/2022,17:37:26,0.293,1.0,16.264,0.036
17/06/2022,17:44:26,0.270,1.0,16.296,0.032
17/06/2022,17:51:26,0.234,1.0,16.326,0.03
17/06/2022,17:59:26,0.201,0.0,16.354,0.028
17/06/2022,18:06:26,0.178,0.0,16.376,0.022
17/06/2022,18:14:36,0.153,0.0,16.399,0.023
17/06/2022,18:20:25,0.137,0.0,16.413,0.014
17/06/2022,18:28:28,0.117,0.0,16.43,0.017
17/06/2022,18:34:25,0.103,0.0,16.441,0.011
17/06/2022,18:41:26,0.088,0.0,16.452,0.011
17/06/2022,18:49:35,0.073,0.0,16.463,0.011
17/06/2022,18:55:26,0.064,0.0,16.47,0.007
17/06/2022,19:03:27,0.052,0.0,16.477,0.007
17/06/2022,19:09:09,0.044,0.0,16.482,0.005
17/06/2022,19:17:31,0.035,0.0,16.488,0.006
17/06/2022,19:23:25,0.030,0.0,16.491,0.003
17/06/2022,19:30:27,0.023,0.0,16.494,0.003
17/06/2022,19:37:26,0.019,0.0,16.496,0.002
17/06/2022,19:45:27,0.014,0.0,16.499,0.003
17/06/2022,19:50:25,0.012,0.0,16.5,0.001
17/06/2022,19:58:27,0.009,0.0,16.501,0.001
17/06/2022,20:05:26,0.006,0.0,16.502,0.001
17/06/2022,20:13:27,0.004,0.0,16.502,0.0
17/06/2022,20:19:34,0.004,0.0,16.502,0.0
17/06/2022,20:27:27,0.001,0.0,16.502,0.0
17/06/2022,20:33:43,0.000,0.0,16.502,0.0
17/06/2022,20:40:26,-0.000,0.0,16.502,0.0
17/06/2022,20:47:27,0.000,0.0,16.502,0.0
17/06/2022,20:55:27,-0.002,0.0,16.502,0.0
17/06/2022,21:01:26,-0.001,0.0,16.502,0.0
17/06/2022,21:08:26,-0.000,0.0,16.502,0.0
17/06/2022,21:15:27,-0.001,0.0,16.502,0.0
17/06/2022,21:22:27,-0.002,0.0,16.502,0.0
17/06/2022,21:29:27,-0.001,0.0,16.502,0.0
17/06/2022,21:36:26,-0.001,0.0,16.502,0.0
17/06/2022,21:43:26,-0.001,0.0,16.502,0.0
17/06/2022,21:49:26,0.000,0.0,16.502,0.0
17/06/2022,21:56:26,-0.001,0.0,16.502,0.0
17/06/2022,22:03:26,-0.000,0.0,16.502,0.0
17/06/2022,22:10:26,-0.001,0.0,16.502,0.0
17/06/2022,22:17:26,0.000,0.0,16.502,0.0
17/06/2022,22:24:26,-0.000,0.0,16.502,0.0
17/06/2022,22:30:26,-0.000,0.0,16.502,0.0
17/06/2022,22:39:28,0.001,0.0,16.502,0.0
17/06/2022,22:49:30,-0.000,0.0,16.502,0.0
17/06/2022,22:57:27,0.001,0.0,16.502,0.0
17/06/2022,23:04:27,-0.000,0.0,16.502,0.0
17/06/2022,23:12:35,-0.000,0.0,16.502,0.0
17/06/2022,23:19:35,-0.001,0.0,16.502,0.0
17/06/2022,23:26:26,0.000,0.0,16.502,0.0
17/06/2022,23:33:27,0.001,0.0,16.502,0.0
17/06/2022,23:39:26,0.000,0.0,16.502,0.0
17/06/2022,23:46:27,0.000,0.0,16.502,0.0
17/06/2022,23:53:27,0.000,0.0,16.502,0.0
17/06/2022,23:59:14,0.000,0.0,16.502,0.0
18/06/2022,00:06:32,0.001,0.0,0.0,-16.502
